"2022-01-13",00:01,2.753,2.731,2.763,2.785,2.753,2.7,97.1,-4.42,-5.262,330.1,331.5,-0.6,-0.193,-1.358,323.5,0,1254.,0.,100000,104.1515,3.017,3.263,2.836,3.37,226.11,2.243,3.13,219.663,0.336,4.53,4.731,5.126,-999,9.129,10.395,3.38,-999.,-999.,6.109,-2.33,-2.207,-2.142,-4.005,0.686,0.687,0.686,0.742,0.725,0.709,0.684,0.738,0.585,,100.,0.,0.,0.,236.8,125.,125.
"2022-01-13",00:02,2.76,2.741,2.768,2.788,2.75,2.7,97.7,-4.452,-5.251,330.1,331.3,-0.4,-0.193,-1.109,323.2,0,1103.,0.,100000,104.1566,3.325,4.012,3.069,3.62,216.001,2.709,3.17,213.135,0.336,4.533,4.735,5.133,-999,9.132,10.402,3.377,-999.,-999.,6.109,-2.33,-2.209,-2.145,-4.005,0.686,0.687,0.686,0.742,0.725,0.709,0.684,0.739,0.585,,100.,0.,0.,0.,236.8,125.,125.
"2022-01-13",00:03,2.776,2.75,2.764,2.793,2.753,2.7,97.7,-4.441,-5.24,330.2,331.4,-0.4,0.,-1.296,323.3,0,969.,0.,100000,104.1629,3.683,4.138,2.989,3.33,214.534,2.621,2.94,212.544,0.336,4.526,4.735,5.126,-999,9.119,10.402,3.38,-999.,-999.,6.109,-2.332,-2.214,-2.145,-4.01,0.686,0.687,0.686,0.742,0.725,0.709,0.684,0.739,0.585,,100.,0.,0.,0.,236.8,125.,125.
"2022-01-13",00:04,2.786,2.741,2.764,2.788,2.763,2.7,97.8,-4.43,-5.23,330.7,331.9,-0.4,-0.048,-1.047,323.,0,1143.,0.,100000,104.1478,4.087,4.825,3.312,3.85,215.798,2.535,3.09,210.199,0.336,4.526,4.731,5.126,-999,9.132,10.402,3.373,-999.,-999.,6.109,-2.335,-2.216,-2.146,-4.014,0.686,0.687,0.686,0.741,0.725,0.709,0.684,0.739,0.585,,100.,0.,0.,0.,236.8,125.,125.
"2022-01-13",00:05,2.76,2.741,2.764,2.78,2.769,2.7,97.2,-4.463,-5.219,330.7,331.7,-0.2,-0.096,-1.171,322.9,0,1091.,0.,100000,104.1414,4.163,4.763,3.651,4.22,214.335,2.837,3.99,210.941,0.336,4.54,4.735,5.133,-999,9.132,10.409,3.37,-999.,-999.,6.109,-2.34,-2.218,-2.15,-4.016,0.686,0.687,0.687,0.742,0.725,0.709,0.684,0.738,0.585,,100.,0.,0.,0.,236.8,125.,125.
"2022-01-13",00:06,2.77,2.747,2.759,2.782,2.776,2.7,96.8,-4.463,-5.23,330.5,331.6,-0.3,-0.241,-1.233,323.1,0,1183.,0.,100000,104.156,4.142,4.95,3.801,4.3,218.131,3.053,3.75,212.935,0.336,4.526,4.735,5.133,-999,9.133,10.416,3.37,-999.,-999.,6.109,-2.34,-2.222,-2.152,-4.016,0.686,0.686,0.686,0.741,0.725,0.709,0.684,0.739,0.585,,100.,0.,0.,0.,236.8,125.,125.
"2022-01-13",00:07,2.77,2.741,2.758,2.788,2.786,2.7,96.9,-4.452,-5.208,330.,331.1,-0.3,-0.289,-0.984,323.1,0,1071.,0.,100000,104.1686,3.983,4.388,3.611,4.18,216.847,2.612,3.39,215.669,0.336,4.53,4.735,5.136,-999,9.133,10.402,3.367,-999.,-999.,6.109,-2.341,-2.227,-2.155,-4.022,0.686,0.687,0.686,0.742,0.725,0.71,0.684,0.738,0.585,,100.,0.,0.,0.,236.8,125.,125.
"2022-01-13",00:08,2.78,2.75,2.768,2.788,2.776,2.7,97.2,-4.463,-5.166,330.1,331.3,-0.5,-0.193,-1.109,323.,0,982.,0.,100000,104.1334,4.025,4.638,3.605,3.9,212.935,2.792,3.5,211.271,0.336,4.533,4.735,5.133,-999,9.136,10.416,3.36,-999.,-999.,6.109,-2.347,-2.227,-2.155,-4.026,0.686,0.687,0.686,0.742,0.725,0.709,0.684,0.739,0.585,,100.,0.,0.,0.,236.8,125.,125.
"2022-01-13",00:09,2.783,2.764,2.777,2.793,2.766,2.7,98.,-4.452,-5.166,330.2,331.5,-0.6,-0.241,-1.296,323.1,0,994.,0.,100000,104.1525,3.208,3.763,3.578,4.27,212.263,2.98,3.65,203.6,0.336,4.53,4.731,5.13,-999,9.132,10.406,3.367,-999.,-999.,6.109,-2.35,-2.228,-2.157,-4.026,0.686,0.687,0.686,0.742,0.725,0.71,0.684,0.739,0.585,,100.,0.,0.,0.,236.8,125.,125.
"2022-01-13",00:10,2.786,2.754,2.768,2.792,2.773,2.7,99.2,-4.463,-5.166,329.5,330.9,-0.7,-0.289,-1.171,323.3,0,1171.,0.,100000,104.1464,3.088,3.575,3.227,3.58,215.532,2.429,3.17,210.131,0.336,4.526,4.731,5.14,-999,9.129,10.406,3.357,-999.,-999.,6.109,-2.35,-2.235,-2.161,-4.027,0.686,0.687,0.686,0.742,0.725,0.709,0.684,0.738,0.585,,100.,0.,0.,0.,236.8,125.,125.
"2022-01-13",00:11,2.783,2.754,2.769,2.794,2.773,2.7,99.7,-4.473,-5.145,329.5,331.,-0.8,-0.193,-1.171,323.4,0,1222.,0.,100000,104.1648,3.517,4.513,2.455,2.82,212.551,1.921,2.56,207.697,0.336,4.533,4.735,5.133,-999,9.139,10.409,3.36,-999.,-999.,6.109,-2.356,-2.236,-2.164,-4.028,0.686,0.686,0.686,0.741,0.724,0.709,0.684,0.738,0.585,,100.,0.,0.,0.,236.8,125.,125.
"2022-01-13",00:12,2.78,2.75,2.764,2.796,2.776,2.7,99.9,-4.409,-5.123,330.3,331.3,-0.3,-0.289,-1.233,323.3,0,1074.,0.,100000,104.1528,3.733,4.325,2.651,3.65,215.837,2.115,3.05,216.635,0.336,4.533,4.735,5.15,-999,9.139,10.419,3.36,-999.,-999.,6.109,-2.36,-2.236,-2.166,-4.033,0.686,0.687,0.686,0.742,0.725,0.709,0.684,0.739,0.585,,100.,0.,0.,0.,236.8,125.,125.
"2022-01-13",00:13,2.786,2.757,2.773,2.797,2.773,2.7,98.6,-4.452,-5.166,330.6,331.4,-0.1,-0.289,-1.233,323.2,0,1039.,0.,100000,104.1462,4.121,4.888,3.833,4.19,217.256,3.081,4.01,215.125,0.336,4.533,4.741,5.143,-999,9.156,10.402,3.363,-999.,-999.,6.112,-2.36,-2.242,-2.166,-4.036,0.687,0.687,0.686,0.742,0.725,0.709,0.684,0.739,0.585,,100.,0.,0.,0.,236.8,125.,125.
"2022-01-13",00:14,2.776,2.757,2.771,2.796,2.769,2.7,97.7,-4.452,-5.166,330.4,331.3,-0.2,-0.241,-1.233,323.3,0,1018.,0.,100000,104.1564,3.704,4.138,3.593,4.62,216.403,2.927,3.51,217.002,0.336,4.533,4.725,5.14,-999,9.133,10.406,3.363,-999.,-999.,6.109,-2.362,-2.245,-2.167,-4.037,0.686,0.687,0.686,0.742,0.725,0.709,0.684,0.739,0.585,,100.,0.,0.,0.,236.8,125.,125.
"2022-01-13",00:15,2.78,2.76,2.786,2.798,2.769,2.7,98.2,-4.463,-5.187,329.7,331.1,-0.7,-0.241,-1.109,323.8,0,1084.,0.,100000,104.1564,3.675,4.575,2.831,3.97,206.445,2.241,3.42,212.282,0.336,4.53,4.738,5.143,-999,9.132,10.402,3.363,-999.,-999.,6.112,-2.368,-2.246,-2.173,-4.038,0.687,0.686,0.686,0.742,0.725,0.71,0.684,0.738,0.585,,100.,0.,0.,0.,236.8,125.,125.
"2022-01-13",00:16,2.789,2.764,2.788,2.794,2.773,2.7,99.8,-4.463,-5.166,330.5,331.7,-0.5,-0.289,-1.233,323.5,0,983.,0.,100000,104.1516,3.375,3.95,2.953,3.81,206.585,2.53,3.87,203.459,0.336,4.526,4.741,5.136,-999,9.139,10.402,3.36,-999.,-999.,6.109,-2.37,-2.248,-2.175,-4.038,0.687,0.687,0.686,0.741,0.725,0.709,0.684,0.738,0.585,,100.,0.,0.,0.,236.8,125.,125.
"2022-01-13",00:17,2.786,2.757,2.795,2.793,2.76,2.7,100.,-4.441,-5.166,330.3,331.5,-0.5,-0.289,-1.171,323.2,0,1005.,0.,100000,104.1464,3.871,4.263,3.761,4.87,208.212,3.239,3.95,205.619,0.336,4.523,4.738,5.143,-999,9.146,10.396,3.363,-999.,-999.,6.109,-2.37,-2.255,-2.176,-4.045,0.686,0.686,0.686,0.742,0.725,0.71,0.684,0.739,0.585,,100.,0.,0.,0.,236.8,125.,125.
"2022-01-13",00:18,2.78,2.76,2.78,2.797,2.753,2.7,98.8,-4.463,-5.187,330.,331.2,-0.5,-0.289,-1.233,323.6,0,1051.,0.,100000,104.153,3.058,4.263,3.847,4.88,202.941,2.593,3.75,198.658,0.336,4.53,4.735,5.14,-999,9.143,10.406,3.357,-999.,-999.,6.109,-2.373,-2.256,-2.177,-4.047,0.687,0.687,0.686,0.742,0.725,0.71,0.684,0.739,0.585,,100.,0.,0.,0.,236.8,125.,125.
"2022-01-13",00:19,2.783,2.747,2.772,2.788,2.74,2.7,99.,-4.495,-5.187,330.,331.2,-0.5,-0.241,-1.233,323.7,0,1021.,0.,100000,104.1557,2.646,3.575,3.105,3.92,194.012,2.004,2.75,200.819,0.336,4.526,4.731,5.133,-999,9.139,10.392,3.357,-999.,-999.,6.109,-2.377,-2.256,-2.18,-4.047,0.686,0.687,0.686,0.742,0.725,0.709,0.684,0.739,0.585,,100.,0.,0.,0.,236.8,125.,125.
"2022-01-13",00:20,2.766,2.744,2.774,2.792,2.753,2.7,99.4,-4.516,-5.166,329.9,331.2,-0.7,-0.241,-1.047,323.4,0,978.,0.,100000,104.1598,3.517,4.45,2.784,3.1,204.463,2.404,3.,207.402,0.336,4.523,4.731,5.136,-999,9.129,10.396,3.35,-999.,-999.,6.112,-2.381,-2.26,-2.183,-4.049,0.687,0.687,0.686,0.742,0.725,0.709,0.684,0.739,0.585,,100.,0.,0.,0.,236.8,125.,125.
"2022-01-13",00:21,2.77,2.747,2.762,2.785,2.75,2.7,98.9,-4.506,-5.177,330.4,331.5,-0.4,-0.241,-0.984,323.5,0,928.,0.,100000,104.1429,3.533,3.95,2.457,3.12,211.937,2.374,3.51,213.934,0.336,4.526,4.731,5.13,-999,9.133,10.396,3.344,-999.,-999.,6.109,-2.382,-2.265,-2.186,-4.052,0.686,0.687,0.686,0.742,0.725,0.709,0.684,0.738,0.585,,100.,0.,0.,0.,236.8,125.,125.
"2022-01-13",00:22,2.753,2.734,2.765,2.792,2.75,2.7,98.6,-4.516,-5.166,330.,331.1,-0.5,-0.096,-1.109,323.4,0,862.,0.,100000,104.1467,3.196,3.638,2.902,3.22,212.065,2.184,2.98,212.869,0.336,4.53,4.735,5.143,-999,9.136,10.409,3.35,-999.,-999.,6.109,-2.383,-2.266,-2.186,-4.055,0.686,0.687,0.686,0.742,0.725,0.709,0.684,0.739,0.585,,100.,0.,0.,0.,236.8,125.,125.
"2022-01-13",00:23,2.75,2.734,2.768,2.789,2.756,2.7,98.1,-4.495,-5.177,330.3,331.6,-0.6,-0.241,-1.109,323.4,0,911.,0.,100000,104.156,3.329,4.075,2.866,3.49,219.876,1.971,2.45,219.336,0.336,4.526,4.731,5.136,-999,9.126,10.402,3.35,-999.,-999.,6.109,-2.389,-2.267,-2.188,-4.057,0.686,0.687,0.686,0.742,0.725,0.709,0.684,0.739,0.585,,100.,0.,0.,0.,236.8,125.,125.
"2022-01-13",00:24,2.753,2.741,2.759,2.778,2.76,2.7,97.2,-4.495,-5.177,330.3,331.5,-0.5,-0.289,-1.109,323.5,0,872.,0.,100000,104.1573,3.2,3.763,2.883,3.59,220.863,2.301,3.08,222.867,0.336,4.526,4.731,5.136,-999,9.139,10.406,3.354,-999.,-999.,6.112,-2.391,-2.272,-2.19,-4.058,0.686,0.687,0.686,0.741,0.725,0.709,0.684,0.738,0.585,,100.,0.,0.,0.,236.8,125.,125.
"2022-01-13",00:25,2.763,2.731,2.76,2.782,2.76,2.7,97.3,-4.516,-5.23,330.5,331.4,-0.2,-0.145,-1.047,323.3,0,1064.,0.,100000,104.147,2.788,3.2,3.024,3.92,212.346,2.465,3.47,206.76,0.336,4.53,4.731,5.146,-999,9.136,10.399,3.347,-999.,-999.,6.109,-2.391,-2.276,-2.195,-4.058,0.686,0.687,0.686,0.742,0.725,0.709,0.684,0.739,0.585,,100.,0.,0.,0.,236.8,125.,125.
"2022-01-13",00:26,2.747,2.721,2.753,2.774,2.75,2.7,97.7,-4.516,-5.24,330.3,331.4,-0.4,-0.145,-1.233,323.5,0,951.,0.,100000,104.1418,3.063,3.763,3.133,4.16,220.535,2.424,3.26,215.128,0.336,4.533,4.731,5.133,-999,9.126,10.412,3.344,-999.,-999.,6.109,-2.393,-2.276,-2.196,-4.059,0.686,0.687,0.686,0.741,0.725,0.709,0.684,0.739,0.585,,100.,0.,0.,0.,236.8,125.,125.
"2022-01-13",00:27,2.753,2.744,2.758,2.778,2.76,2.7,97.7,-4.549,-5.23,329.9,331.,-0.4,-0.289,-1.171,323.6,0,1017.,0.,100000,104.1487,2.688,3.2,3.075,3.83,211.465,2.279,2.64,212.744,0.336,4.53,4.735,5.136,-999,9.133,10.402,3.344,-999.,-999.,6.109,-2.4,-2.277,-2.196,-4.06,0.687,0.687,0.686,0.742,0.725,0.709,0.684,0.739,0.585,,100.,0.,0.,0.,236.8,125.,125.
"2022-01-13",00:28,2.753,2.737,2.756,2.783,2.756,2.7,98.7,-4.527,-5.208,329.7,331.1,-0.7,-0.241,-1.109,323.5,0,922.,0.,100000,104.1539,3.646,4.763,2.695,3.84,210.955,1.947,2.7,214.2,0.336,4.526,4.735,5.156,-999,9.133,10.399,3.35,-999.,-999.,6.109,-2.401,-2.284,-2.196,-4.066,0.687,0.687,0.686,0.742,0.725,0.709,0.684,0.738,0.585,,100.,0.,0.,0.,236.8,125.,125.
"2022-01-13",00:29,2.76,2.741,2.76,2.782,2.756,2.7,98.8,-4.506,-5.177,330.4,331.6,-0.5,-0.096,-1.171,323.6,0,969.,0.,100000,104.1487,4.112,4.825,3.077,3.85,222.718,2.331,3.34,221.329,0.336,4.523,4.735,5.133,-999,9.133,10.392,3.344,-999.,-999.,6.109,-2.401,-2.286,-2.201,-4.068,0.686,0.687,0.686,0.742,0.725,0.709,0.684,0.738,0.585,,100.,0.,0.,0.,236.8,125.,125.
"2022-01-13",00:30,2.78,2.737,2.774,2.792,2.756,2.7,98.9,-4.516,-5.166,330.2,331.4,-0.6,-0.048,-1.358,323.6,0,996.,0.,100000,104.1533,2.804,3.2,2.891,3.46,214.006,2.375,3.5,212.129,0.336,4.53,4.731,5.13,-999,9.129,10.392,3.347,-999.,-999.,6.115,-2.405,-2.287,-2.204,-4.067,0.686,0.687,0.686,0.742,0.725,0.709,0.684,0.739,0.585,,100.,0.,0.,0.,236.8,125.,125.
"2022-01-13",00:31,2.776,2.737,2.764,2.783,2.753,2.7,98.4,-4.527,-5.187,330.5,331.6,-0.4,-0.241,-1.296,323.5,0,917.,0.,100000,104.1553,3.092,3.45,2.981,3.51,210.666,2.489,3.39,212.538,0.336,4.523,4.731,5.13,-999,9.123,10.389,3.344,-999.,-999.,6.109,-2.411,-2.289,-2.206,-4.068,0.686,0.687,0.686,0.742,0.725,0.709,0.684,0.738,0.585,,100.,0.,0.,0.,236.8,125.,125.
"2022-01-13",00:32,2.78,2.741,2.76,2.785,2.76,2.7,97.4,-4.538,-5.23,330.2,331.3,-0.4,-0.048,-1.109,323.5,0,926.,0.,100000,104.1507,3.446,4.012,2.979,3.42,219.867,2.675,3.15,224.334,0.336,4.523,4.731,5.126,-999,9.123,10.406,3.344,-999.,-999.,6.109,-2.412,-2.295,-2.207,-4.069,0.687,0.687,0.686,0.742,0.725,0.709,0.684,0.738,0.585,,100.,0.,0.,0.,236.8,125.,125.
"2022-01-13",00:33,2.773,2.741,2.774,2.788,2.756,2.7,97.5,-4.538,-5.262,330.3,331.5,-0.5,-0.048,-0.984,323.5,0,1013.,0.,100000,104.1435,2.75,3.138,2.833,3.37,218.636,2.601,3.32,221.751,0.336,4.526,4.731,5.13,-999,9.129,10.406,3.341,-999.,-999.,6.109,-2.412,-2.296,-2.208,-4.073,0.687,0.687,0.686,0.742,0.725,0.709,0.684,0.739,0.585,,100.,0.,0.,0.,236.8,125.,125.
"2022-01-13",00:34,2.786,2.744,2.769,2.794,2.756,2.7,98.,-4.538,-5.23,330.6,331.8,-0.5,0.,-1.233,323.3,0,1013.,0.,100000,104.1562,3.5,4.138,3.271,3.96,215.288,3.061,4.17,220.045,0.336,4.523,4.738,5.136,-999,9.123,10.396,3.344,-999.,-999.,6.109,-2.417,-2.298,-2.212,-4.074,0.686,0.687,0.686,0.742,0.725,0.709,0.684,0.739,0.585,,100.,0.,0.,0.,236.8,125.,125.
"2022-01-13",00:35,2.783,2.757,2.773,2.793,2.756,2.7,97.3,-4.559,-5.272,330.4,331.5,-0.4,0.,-1.358,323.2,0,924.,0.,100000,104.1556,3.013,3.45,3.107,3.71,220.128,2.547,3.18,220.669,0.336,4.52,4.731,5.14,-999,9.126,10.402,3.344,-999.,-999.,6.109,-2.417,-2.3,-2.214,-4.075,0.687,0.687,0.686,0.742,0.725,0.709,0.684,0.739,0.585,,100.,0.,0.,0.,236.8,125.,125.
"2022-01-13",00:36,2.793,2.76,2.763,2.791,2.756,2.7,96.9,-4.516,-5.24,330.8,331.9,-0.4,-0.048,-1.358,323.4,0,972.,0.,100000,104.147,3.133,4.138,3.489,4.66,221.013,2.749,3.33,218.81,0.336,4.526,4.735,5.126,-999,9.119,10.396,3.344,-999.,-999.,6.109,-2.421,-2.304,-2.215,-4.074,0.686,0.687,0.686,0.742,0.725,0.709,0.684,0.739,0.585,,100.,0.,0.,0.,236.8,125.,125.
"2022-01-13",00:37,2.783,2.744,2.771,2.798,2.763,2.7,96.8,-4.549,-5.262,330.4,331.7,-0.6,-0.193,-0.984,323.5,0,959.,0.,100000,104.149,3.104,3.825,3.037,3.76,221.804,2.174,3.36,223.,0.336,4.526,4.731,5.133,-999,9.129,10.396,3.341,-999.,-999.,6.109,-2.423,-2.306,-2.217,-4.079,0.687,0.687,0.686,0.741,0.725,0.709,0.684,0.738,0.585,,100.,0.,0.,0.,236.8,125.,125.
"2022-01-13",00:38,2.789,2.754,2.782,2.797,2.766,2.7,97.7,-4.538,-5.23,330.2,331.3,-0.4,-0.048,-1.233,323.6,0,977.,0.,100000,104.1433,2.488,3.388,2.735,3.38,222.466,2.346,3.35,228.671,0.336,4.53,4.722,5.133,-999,9.129,10.402,3.337,-999.,-999.,6.109,-2.429,-2.307,-2.218,-4.079,0.686,0.687,0.686,0.742,0.725,0.709,0.684,0.739,0.585,,100.,0.,0.,0.,236.8,125.,125.
"2022-01-13",00:39,2.783,2.747,2.794,2.8,2.756,2.7,98.4,-4.516,-5.209,330.3,331.3,-0.3,-0.048,-1.047,323.6,0,1029.,0.,100000,104.1401,3.017,3.7,2.529,3.3,225.937,1.897,2.11,221.582,0.336,4.523,4.731,5.14,-999,9.129,10.396,3.341,-999.,-999.,6.109,-2.432,-2.314,-2.223,-4.079,0.686,0.687,0.686,0.742,0.725,0.709,0.684,0.739,0.585,,100.,0.,0.,0.,236.8,125.,125.
"2022-01-13",00:40,2.793,2.764,2.787,2.802,2.763,2.7,98.4,-4.506,-5.209,330.4,331.4,-0.3,0.,-1.047,323.8,0,913.,0.,100000,104.1396,3.15,3.638,3.358,3.79,227.27,2.547,3.14,220.935,0.336,4.526,4.735,5.12,-999,9.133,10.399,3.344,-999.,-999.,6.109,-2.434,-2.315,-2.225,-4.079,0.686,0.687,0.686,0.742,0.725,0.709,0.684,0.739,0.585,,100.,0.,0.,0.,236.8,125.,125.
"2022-01-13",00:41,2.793,2.777,2.795,2.805,2.776,2.7,98.3,-4.527,-5.177,330.3,331.2,-0.3,0.,-1.233,323.8,0,1058.,0.,100000,104.1471,2.963,3.575,3.036,3.75,222.808,2.472,3.13,218.811,0.336,4.523,4.735,5.126,-999,9.126,10.402,3.337,-999.,-999.,6.109,-2.434,-2.317,-2.225,-4.079,0.687,0.687,0.686,0.742,0.725,0.709,0.684,0.738,0.585,,100.,0.,0.,0.,236.8,125.,125.
"2022-01-13",00:42,2.799,2.777,2.8,2.805,2.792,2.7,98.6,-4.495,-5.177,330.6,331.5,-0.2,0.,-1.109,323.5,0,926.,0.,100000,104.1488,2.7,3.075,2.778,3.02,218.933,2.217,2.85,212.473,0.336,4.523,4.731,5.14,-999,9.129,10.399,3.344,-999.,-999.,6.109,-2.441,-2.318,-2.227,-4.079,0.687,0.687,0.686,0.742,0.725,0.709,0.684,0.739,0.585,,100.,0.,0.,0.,236.8,125.,125.
"2022-01-13",00:43,2.799,2.78,2.809,2.802,2.796,2.7,97.9,-4.517,-5.166,330.7,331.6,-0.3,0.,-1.047,323.7,0,946.,0.,100000,104.1426,3.029,3.45,2.504,3.1,221.064,1.921,2.26,221.869,0.336,4.526,4.728,5.126,-999,9.126,10.396,3.334,-999.,-999.,6.109,-2.442,-2.324,-2.227,-4.079,0.686,0.687,0.686,0.742,0.725,0.71,0.684,0.738,0.585,,100.,0.,0.,0.,236.8,125.,125.
"2022-01-13",00:44,2.822,2.79,2.832,2.832,2.789,2.7,97.4,-4.506,-5.166,330.7,331.7,-0.3,0.,-1.233,323.8,0,871.,0.,100000,104.1307,3.388,3.95,3.002,3.92,221.198,2.294,3.14,221.999,0.336,4.526,4.731,5.133,-999,9.129,10.396,3.344,-999.,-999.,6.109,-2.442,-2.325,-2.231,-4.079,0.686,0.687,0.686,0.741,0.725,0.709,0.684,0.738,0.585,,100.,0.,0.,0.,236.8,125.,125.
"2022-01-13",00:45,2.822,2.786,2.837,2.844,2.796,2.747,97.6,-4.517,-5.166,330.7,331.6,-0.3,0.,-1.047,323.7,0,837.,0.,100000,104.1392,3.667,4.45,3.337,3.98,216.412,2.502,3.21,215.103,0.336,4.523,4.728,5.13,-999,9.123,10.392,3.337,-999.,-999.,6.109,-2.447,-2.326,-2.235,-4.079,0.686,0.687,0.686,0.742,0.724,0.709,0.684,0.739,0.585,,100.,0.,0.,0.,236.8,125.,125.
"2022-01-13",00:46,2.809,2.78,2.833,2.838,2.789,2.72,98.,-4.527,-5.166,330.8,331.7,-0.3,-0.048,-1.047,323.6,0,964.,0.,100000,104.1386,3.658,4.95,3.613,4.17,222.863,3.231,3.94,220.397,0.336,4.523,4.728,5.14,-999,9.129,10.396,3.334,-999.,-999.,6.109,-2.451,-2.332,-2.237,-4.079,0.686,0.687,0.686,0.742,0.725,0.709,0.684,0.738,0.585,,100.,0.,0.,0.,236.8,125.,125.
"2022-01-13",00:47,2.822,2.783,2.827,2.841,2.802,2.707,97.3,-4.527,-5.177,330.8,331.7,-0.3,0.,-1.233,323.6,0,1001.,0.,100000,104.1326,3.317,3.638,3.079,3.44,222.,2.779,3.29,222.866,0.336,4.523,4.735,5.133,-999,9.129,10.396,3.341,-999.,-999.,6.109,-2.452,-2.334,-2.237,-4.079,0.686,0.686,0.686,0.742,0.725,0.709,0.684,0.739,0.585,,100.,0.,0.,0.,236.8,125.,125.
"2022-01-13",00:48,2.832,2.796,2.833,2.849,2.802,2.773,97.4,-4.527,-5.198,330.4,331.6,-0.5,0.,-1.109,323.7,0,1044.,0.,100000,104.1294,3.463,3.95,3.013,3.76,224.402,2.395,3.11,224.17,0.336,4.523,4.731,5.133,-999,9.126,10.402,3.334,-999.,-999.,6.109,-2.453,-2.335,-2.237,-4.078,0.686,0.687,0.686,0.742,0.725,0.709,0.684,0.739,0.585,,100.,0.,0.,0.,236.8,125.,125.
"2022-01-13",00:49,2.845,2.8,2.831,2.857,2.818,2.8,98.,-4.495,-5.177,330.9,331.7,-0.1,0.,-1.42,323.5,0,944.,0.,100000,104.145,3.946,4.388,3.679,4.29,220.337,2.594,3.02,217.536,0.336,4.526,4.735,5.126,-999,9.123,10.396,3.344,-999.,-999.,6.109,-2.457,-2.337,-2.239,-4.078,0.687,0.687,0.686,0.742,0.725,0.709,0.684,0.739,0.585,,100.,0.,0.,0.,236.8,125.,125.
"2022-01-13",00:50,2.839,2.816,2.833,2.858,2.832,2.8,97.6,-4.484,-5.166,330.6,331.6,-0.3,-0.048,-0.922,323.9,0,1048.,0.,100000,104.1382,3.533,4.012,3.838,4.35,224.869,3.279,4.35,226.401,0.336,4.53,4.731,5.136,-999,9.129,10.399,3.344,-999.,-999.,6.109,-2.461,-2.341,-2.243,-4.079,0.687,0.687,0.686,0.742,0.725,0.71,0.684,0.738,0.585,,100.,0.,0.,0.,236.8,125.,125.
"2022-01-13",00:51,2.855,2.819,2.838,2.86,2.828,2.8,97.9,-4.473,-5.166,330.1,331.3,-0.5,-0.193,-1.047,324.,0,1062.,0.,100000,104.1345,3.529,4.263,2.936,3.74,216.204,2.298,2.65,213.199,0.336,4.53,4.735,5.133,-999,9.133,10.396,3.344,-999.,-999.,6.112,-2.463,-2.344,-2.245,-4.075,0.687,0.687,0.686,0.741,0.725,0.709,0.684,0.738,0.585,,100.,0.,0.,0.,236.8,125.,125.
"2022-01-13",00:52,2.849,2.813,2.833,2.857,2.835,2.8,98.7,-4.452,-5.134,330.2,331.4,-0.5,-0.096,-1.296,323.8,0,957.,0.,100000,104.1383,3.346,3.888,2.655,3.15,214.533,2.495,2.94,212.26,0.336,4.526,4.735,5.146,-999,9.126,10.399,3.337,-999.,-999.,6.112,-2.463,-2.345,-2.248,-4.07,0.686,0.687,0.686,0.742,0.725,0.71,0.684,0.739,0.586,,100.,0.,0.,0.,236.8,125.,125.
"2022-01-13",00:53,2.855,2.819,2.845,2.856,2.835,2.8,98.8,-4.452,-5.156,331.1,332.1,-0.3,-0.096,-1.109,323.5,0,901.,0.,100000,104.1402,3.904,4.45,3.643,4.38,218.6,2.861,3.37,218.669,0.336,4.523,4.728,5.133,-999,9.123,10.392,3.344,-999.,-999.,6.109,-2.464,-2.347,-2.248,-4.069,0.686,0.687,0.686,0.742,0.725,0.709,0.684,0.739,0.585,,100.,0.,0.,0.,236.8,125.,125.
"2022-01-13",00:54,2.849,2.816,2.837,2.862,2.828,2.8,98.,-4.484,-5.124,330.8,331.8,-0.4,0.,-1.171,323.4,0,944.,0.,100000,104.14,4.283,5.2,4.235,4.67,216.333,3.47,4.17,214.067,0.336,4.526,4.735,5.12,-999,9.119,10.399,3.327,-999.,-999.,6.109,-2.47,-2.352,-2.249,-4.069,0.686,0.687,0.686,0.742,0.725,0.709,0.684,0.739,0.585,,100.,0.,0.,0.,236.8,125.,125.
"2022-01-13",00:55,2.859,2.806,2.836,2.858,2.832,2.8,97.4,-4.495,-5.102,330.6,331.6,-0.4,0.,-1.233,323.7,0,1070.,0.,100000,104.1369,4.187,5.325,3.91,4.78,213.772,3.332,3.86,215.782,0.336,4.523,4.735,5.126,-999,9.129,10.396,3.334,-999.,-999.,6.109,-2.473,-2.355,-2.251,-4.068,0.686,0.687,0.686,0.742,0.725,0.71,0.684,0.739,0.585,,100.,0.,0.,0.,236.8,125.,125.
"2022-01-13",00:56,2.842,2.819,2.832,2.857,2.835,2.8,98.2,-4.452,-5.113,330.5,331.6,-0.4,0.,-0.984,323.6,0,1058.,0.,100000,104.1441,3.508,3.95,3.221,3.81,223.253,2.29,2.84,218.655,0.336,4.523,4.728,5.133,-999,9.123,10.389,3.334,-999.,-999.,6.109,-2.473,-2.355,-2.254,-4.067,0.686,0.687,0.686,0.742,0.725,0.709,0.684,0.739,0.585,,100.,0.,0.,0.,236.8,125.,125.
"2022-01-13",00:57,2.855,2.816,2.847,2.858,2.835,2.8,98.1,-4.452,-5.102,330.5,331.5,-0.3,0.,-1.109,323.8,0,1060.,0.,100000,104.1467,3.179,3.825,3.481,4.24,226.933,2.609,3.51,226.,0.336,4.526,4.735,5.126,-999,9.123,10.392,3.331,-999.,-999.,6.109,-2.473,-2.358,-2.256,-4.063,0.686,0.687,0.686,0.742,0.725,0.709,0.684,0.739,0.585,,100.,0.,0.,0.,236.8,125.,125.
"2022-01-13",00:58,2.868,2.823,2.851,2.858,2.832,2.8,98.,-4.463,-5.092,330.,331.4,-0.8,0.,-1.171,323.9,0,974.,0.,100000,104.1362,3.304,3.888,2.769,3.41,220.728,2.201,2.88,223.465,0.336,4.523,4.735,5.133,-999,9.119,10.392,3.337,-999.,-999.,6.109,-2.478,-2.364,-2.258,-4.06,0.687,0.687,0.686,0.742,0.725,0.709,0.684,0.739,0.585,,100.,0.,0.,0.,236.8,125.,125.
"2022-01-13",00:59,2.881,2.819,2.847,2.86,2.832,2.8,98.6,-4.431,-5.092,330.3,331.5,-0.5,0.,-1.171,323.8,0,1024.,0.,100000,104.1375,3.8,4.388,2.795,3.28,224.335,2.452,3.16,226.469,0.336,4.523,4.735,5.13,-999,9.126,10.396,3.337,-999.,-999.,6.109,-2.482,-2.364,-2.258,-4.058,0.687,0.687,0.686,0.742,0.725,0.709,0.684,0.739,0.585,,100.,0.,0.,0.,236.8,125.,125.
"2022-01-13",01:00,2.875,2.832,2.85,2.86,2.835,2.8,98.5,-4.452,-5.06,330.3,331.3,-0.4,0.,-1.109,323.7,0,995.,0.,100000,104.1431,3.238,3.825,3.136,3.96,228.271,2.683,3.48,228.133,0.336,4.526,4.731,5.13,-999,9.126,10.399,3.337,-999.,-999.,6.109,-2.483,-2.365,-2.26,-4.058,0.686,0.687,0.686,0.742,0.725,0.71,0.684,0.739,0.585,,100.,0.,0.,0.,236.8,125.,125.
"2022-01-13",01:01,2.888,2.829,2.855,2.866,2.835,2.8,98.2,-4.452,-5.102,330.6,331.8,-0.5,0.,-1.296,323.9,0,1131.,0.,100000,104.1328,3.4,4.513,3.677,4.79,223.128,2.836,3.71,220.07,0.336,4.523,4.725,5.133,-999,9.126,10.396,3.334,-999.,-999.,6.109,-2.483,-2.367,-2.262,-4.053,0.686,0.687,0.686,0.742,0.725,0.709,0.684,0.738,0.586,,100.,0.,0.,0.,236.8,125.,125.
"2022-01-13",01:02,2.891,2.836,2.859,2.869,2.835,2.8,97.5,-4.474,-5.113,330.,331.2,-0.6,0.,-1.296,323.8,0,1086.,0.,100000,104.1366,3.862,5.013,3.677,4.7,227.029,2.854,3.46,234.896,0.336,4.526,4.728,5.143,-999,9.129,10.389,3.341,-999.,-999.,6.109,-2.489,-2.373,-2.266,-4.05,0.687,0.687,0.686,0.742,0.725,0.71,0.684,0.738,0.585,,100.,0.,0.,0.,236.8,125.,125.
"2022-01-13",01:03,2.898,2.845,2.878,2.89,2.838,2.8,97.8,-4.452,-5.134,330.4,331.6,-0.5,-0.048,-1.171,323.6,0,1100.,0.,100000,104.1454,3.233,4.2,2.631,2.95,217.535,2.309,2.72,215.344,0.336,4.526,4.731,5.143,-999,9.129,10.396,3.337,-999.,-999.,6.109,-2.493,-2.374,-2.268,-4.047,0.686,0.687,0.686,0.742,0.725,0.71,0.684,0.738,0.585,,100.,0.,0.,0.,236.8,125.,125.
"2022-01-13",01:04,2.888,2.845,2.876,2.889,2.841,2.8,98.6,-4.452,-5.145,330.8,331.8,-0.3,0.,-1.171,323.6,0,1007.,0.,100000,104.1498,3.992,4.95,3.298,4.03,221.202,2.875,3.65,219.759,0.336,4.523,4.735,5.14,-999,9.123,10.396,3.337,-999.,-999.,6.109,-2.5,-2.376,-2.268,-4.046,0.686,0.687,0.686,0.742,0.725,0.709,0.684,0.739,0.585,,100.,0.,0.,0.,236.8,125.,125.
"2022-01-13",01:05,2.878,2.836,2.872,2.884,2.845,2.8,98.2,-4.506,-5.145,330.6,331.7,-0.5,-0.048,-0.922,323.8,0,1007.,0.,100000,104.1492,3.983,4.95,3.44,4.01,228.8,2.621,3.14,226.993,0.336,4.523,4.735,5.13,-999,9.123,10.385,3.337,-999.,-999.,6.109,-2.503,-2.379,-2.272,-4.041,0.686,0.687,0.686,0.742,0.725,0.709,0.684,0.738,0.585,,100.,0.,0.,0.,236.8,125.,125.
"2022-01-13",01:06,2.891,2.852,2.879,2.898,2.864,2.8,97.5,-4.506,-5.155,330.4,331.5,-0.5,0.,-1.233,323.9,0,1031.,0.,100000,104.1536,3.679,4.263,3.291,3.55,224.137,2.509,3.14,226.802,0.336,4.526,4.731,5.123,-999,9.123,10.396,3.341,-999.,-999.,6.109,-2.503,-2.382,-2.273,-4.038,0.686,0.687,0.686,0.742,0.725,0.709,0.684,0.739,0.585,,100.,0.,0.,0.,236.8,125.,125.